Theta_e
342 344 347 348 348 348 347 348 347 347 348 348 348 348 349 348 347 346 346 345 344 344 343 342 343 342 342 343 342 342 344 347 346 346 345 344 345 345 345 345 344 344 343 343 343 343 343 343 344 343 342 341 341 341 341 340 339 341 340 340 341 341 341 341 341 340 339 338 338 340 341 342 341 341 341 340 339 340 339 339 337 334 336 338 339
341 345 347 349 348 348 347 346 346 347 348 348 348 348 348 346 345 345 344 344 344 343 342 341 340 340 340 341 341 342 345 347 346 346 345 344 345 345 345 344 343 342 343 342 343 342 343 343 343 342 341 341 341 341 340 339 339 339 339 340 339 339 339 339 338 338 339 340 338 337 337 337 338 339 340 340 340 339 338 339 338 334 335 337 337
344 345 347 348 349 349 347 346 345 346 347 347 347 348 346 345 345 345 344 343 343 342 341 342 341 340 340 343 345 346 347 347 345 345 344 344 344 344 344 344 342 342 342 342 342 342 342 342 342 342 342 341 341 340 339 338 337 338 338 338 338 338 338 337 338 338 338 338 337 336 336 337 336 337 338 339 339 339 338 338 337 336 334 336 336
343 345 348 347 348 348 348 346 345 346 345 344 345 345 346 346 346 344 343 343 343 342 342 343 343 343 343 344 347 348 347 346 345 343 343 344 344 344 344 343 342 342 342 342 341 341 341 341 342 341 341 340 339 339 338 337 336 336 338 337 337 337 337 338 337 337 337 337 338 336 334 334 334 336 336 337 337 338 338 337 338 338 337 337 337
343 345 347 347 347 347 347 346 345 345 344 344 344 344 343 346 345 344 344 344 343 343 341 341 344 344 345 346 348 346 346 345 344 343 342 342 342 343 343 342 342 341 341 341 340 340 341 341 341 341 340 339 338 338 337 336 335 336 337 337 337 337 337 337 337 336 337 336 340 336 333 334 335 336 336 337 336 337 337 336 336 336 336 336 336
344 345 346 347 345 346 346 346 345 344 343 342 341 342 341 343 346 345 345 344 342 340 340 341 344 345 346 345 347 347 345 344 344 344 342 342 341 341 342 341 341 341 341 340 340 339 339 339 340 340 339 338 338 338 337 337 336 336 337 337 337 337 337 337 336 336 336 337 336 332 332 333 333 334 337 337 337 337 335 335 335 336 336 336 336
345 346 346 346 345 345 345 346 344 343 341 340 340 340 340 343 345 345 345 343 341 340 341 342 342 345 347 346 346 346 345 344 343 342 343 343 341 341 341 341 341 340 340 340 339 339 339 339 339 339 338 337 337 337 337 336 336 336 337 337 337 337 337 336 336 336 337 333 332 332 332 333 333 334 336 336 336 335 334 335 335 336 336 336 336
346 346 346 345 346 344 344 345 343 342 341 341 340 340 341 346 345 344 343 341 340 340 342 342 343 346 347 346 345 345 345 344 344 343 342 341 341 340 340 340 340 340 339 339 339 339 339 338 338 338 338 337 336 336 336 336 336 336 336 337 337 337 336 336 335 335 337 331 334 334 332 333 333 333 336 335 336 335 334 335 334 335 336 337 336
344 345 345 345 344 342 343 344 342 341 340 340 339 338 340 345 344 343 341 340 340 342 342 342 344 346 346 346 345 345 345 343 342 341 341 340 340 340 340 339 339 339 339 339 339 339 339 339 338 338 337 337 336 335 335 336 336 336 336 336 336 337 336 336 335 337 333 334 334 334 334 332 332 333 334 336 335 334 334 335 333 336 336 336 335
344 345 345 345 344 341 342 342 342 341 339 338 339 339 339 340 341 341 340 341 341 342 342 341 347 347 346 346 345 345 343 342 341 341 340 338 338 338 338 338 338 338 339 338 339 339 339 338 336 336 336 336 335 335 335 335 335 336 336 335 336 336 336 334 335 335 333 334 335 335 334 341 334 333 333 335 334 333 334 335 336 335 335 335 335
344 344 344 344 344 340 343 344 343 341 339 339 338 338 339 339 340 341 340 341 341 341 341 340 345 346 346 345 345 344 343 341 340 339 339 338 338 339 339 338 338 338 338 338 338 338 338 338 337 336 336 336 335 335 334 335 335 335 335 335 335 335 334 334 335 333 335 334 334 335 336 340 334 333 334 335 335 336 337 337 336 335 335 335 335
343 344 344 344 344 340 343 343 342 340 339 338 337 339 338 338 338 339 339 340 341 341 340 341 342 345 346 345 345 344 343 341 340 339 339 340 340 339 339 338 337 337 336 336 336 337 338 337 338 337 336 336 335 335 334 334 334 335 335 335 335 334 334 333 332 333 334 334 335 336 336 335 336 337 336 336 337 336 335 335 335 335 336 336 335
342 342 343 344 343 340 341 342 342 341 341 338 337 337 340 339 338 338 338 340 341 342 341 343 345 345 345 346 345 343 342 341 341 340 340 340 339 338 336 336 336 336 337 337 336 337 337 337 337 336 336 336 335 334 334 334 335 335 335 334 334 333 332 332 332 332 333 333 334 335 335 337 338 337 337 336 336 335 335 335 335 335 336 337 336
342 341 342 343 344 344 338 339 340 341 343 342 339 338 339 340 338 337 336 338 341 341 342 345 345 345 344 344 344 343 343 342 341 340 339 339 338 337 337 337 336 335 336 336 336 336 336 337 337 336 336 336 335 334 333 334 335 335 334 333 332 331 330 330 331 332 331 331 332 333 334 336 337 336 336 336 336 336 336 336 336 336 335 337 337
343 342 343 343 343 344 341 337 339 339 341 342 340 339 339 339 338 337 337 336 339 341 345 346 344 344 344 344 344 344 343 342 341 340 339 339 338 337 336 335 335 335 336 336 335 335 335 336 336 336 336 336 336 335 334 334 334 334 334 332 331 330 327 329 329 330 329 330 331 332 334 335 336 337 336 336 337 336 336 336 336 336 336 335 337
344 344 344 343 342 344 342 341 336 336 338 338 338 339 340 340 338 340 338 336 337 340 345 345 344 343 343 343 343 343 342 341 340 340 340 339 338 337 336 335 334 335 335 334 335 334 335 335 336 335 336 336 336 335 334 334 334 334 332 331 330 328 326 327 330 330 329 330 330 331 332 335 335 336 337 336 337 336 336 336 336 335 336 335 335
343 344 342 342 344 343 342 341 339 333 334 334 335 335 339 341 340 341 342 340 338 341 341 342 343 343 343 343 342 342 342 340 341 341 340 339 337 337 336 335 335 334 335 335 335 335 335 335 335 335 335 335 336 336 335 335 334 333 331 329 329 326 326 325 329 329 328 330 330 331 332 333 336 335 336 335 335 336 336 335 336 336 336 336 336
342 343 341 342 342 342 341 342 341 340 341 336 332 333 337 340 340 341 341 342 343 342 343 343 342 342 342 342 342 342 341 341 341 340 340 339 337 336 337 335 334 335 334 335 334 334 334 335 335 335 334 335 335 335 334 334 333 332 330 328 327 325 325 323 330 329 329 330 330 331 331 333 336 334 334 335 336 335 335 335 335 335 335 336 335
341 341 341 340 340 341 341 342 342 341 341 338 338 340 333 337 338 339 339 340 340 339 340 339 340 341 340 340 340 339 338 338 338 338 337 336 335 333 334 336 334 334 335 334 333 334 334 335 335 335 335 334 333 333 332 332 331 330 328 327 324 323 319 325 328 329 328 328 329 330 330 333 333 333 334 335 335 335 335 335 335 334 334 335 335
340 340 339 340 341 341 341 341 341 339 340 338 338 337 335 333 335 336 336 337 337 336 335 335 334 335 335 335 334 338 336 338 333 337 333 335 335 332 332 335 334 334 334 334 334 333 334 334 335 335 335 334 333 332 331 330 329 328 327 325 324 319 332 327 328 328 327 328 327 328 330 334 333 334 333 333 336 335 335 335 334 334 335 335 334
336 338 339 338 341 340 339 339 340 339 339 338 339 339 344 332 333 332 333 333 334 333 332 328 327 327 330 328 332 341 341 340 340 339 330 338 328 327 330 335 335 335 334 334 334 333 333 334 334 332 331 329 328 328 328 328 327 326 324 324 319 330 328 329 328 327 328 328 326 328 328 332 332 333 334 334 335 334 334 334 334 334 334 334 334
334 335 337 337 338 338 339 339 339 339 339 339 340 339 341 337 339 341 342 338 333 331 337 342 339 342 329 336 340 339 339 339 339 338 338 338 334 325 329 333 335 334 335 334 334 333 333 334 335 332 328 325 322 332 329 324 323 324 322 318 332 329 329 328 328 327 327 327 327 329 328 331 331 333 334 333 335 334 333 332 333 333 333 333 334
331 334 335 337 337 337 338 338 338 338 339 339 340 339 337 337 339 337 339 335 338 340 340 340 341 340 341 340 337 338 339 339 339 337 338 325 334 323 328 331 332 332 334 333 331 330 331 331 329 327 324 321 332 331 331 332 331 319 320 331 330 330 330 329 328 327 327 328 328 327 329 331 330 333 334 334 334 333 333 332 332 332 333 333 333
330 333 333 335 336 336 337 338 337 338 337 337 338 337 337 337 336 335 337 338 339 340 340 340 339 339 340 339 337 339 339 338 331 328 329 336 332 323 324 326 326 326 327 331 327 325 325 324 323 322 327 329 331 330 330 331 331 331 331 329 329 330 330 328 327 327 327 329 329 326 327 330 330 332 333 334 334 333 333 332 332 332 332 332 333
330 332 333 334 335 335 336 336 337 337 337 335 335 335 336 336 335 333 336 337 338 338 338 339 339 339 339 337 338 338 338 337 337 336 336 335 335 335 334 334 334 334 327 333 332 332 331 332 332 329 330 330 330 330 330 330 330 331 330 329 329 330 330 329 328 327 328 327 327 324 324 328 330 332 333 333 334 333 332 332 332 332 332 332 332
331 330 331 333 335 335 335 335 336 337 336 335 335 334 335 334 334 333 334 336 337 337 337 336 337 338 338 337 337 336 336 335 336 336 334 334 334 333 333 333 333 332 331 331 330 331 331 331 331 330 329 329 329 330 330 329 330 329 329 330 330 329 329 329 329 328 328 327 328 321 324 327 329 331 331 333 333 332 331 331 331 331 332 332 332
330 330 331 333 334 335 335 335 334 334 335 335 335 334 334 334 334 334 334 334 336 335 335 335 336 337 337 337 335 333 334 334 334 334 333 333 333 333 332 332 332 331 331 330 329 328 328 329 330 330 329 328 329 330 330 330 330 329 329 329 330 330 330 329 329 329 330 330 328 317 322 328 329 329 331 333 332 330 330 329 330 331 332 332 332
330 330 331 331 332 333 334 334 333 334 334 335 334 333 333 333 332 333 334 332 334 334 334 335 336 335 336 335 334 333 333 332 333 333 332 332 332 332 332 332 331 331 330 330 328 328 327 328 330 330 329 328 328 330 329 329 330 330 329 329 330 329 330 330 329 329 329 330 330 322 315 321 326 328 330 331 330 329 328 328 329 329 331 330 332
329 330 330 330 331 332 333 333 333 332 333 334 333 333 333 332 333 332 332 330 333 333 334 335 334 334 335 336 335 333 332 332 332 331 332 331 332 332 331 330 331 330 329 329 329 328 328 328 328 328 329 327 327 328 329 329 330 329 328 329 329 329 330 330 330 329 330 330 330 326 315 318 323 328 330 329 329 329 329 329 328 327 328 331 330
330 330 330 331 332 332 332 332 332 332 332 333 332 333 333 331 331 331 333 332 333 334 334 333 333 333 332 334 335 333 332 331 331 331 330 330 330 330 329 329 329 330 329 328 328 328 328 328 328 328 327 327 326 327 328 329 329 329 329 329 329 329 330 329 330 330 331 330 330 330 313 316 319 325 329 329 328 328 328 328 328 326 328 327 330
331 330 331 331 331 331 332 332 332 332 332 331 331 332 333 331 331 331 332 332 333 333 332 332 332 332 331 333 333 334 333 332 331 331 330 330 329 329 328 328 328 329 328 328 329 328 328 328 328 327 326 326 326 327 327 327 328 328 329 328 328 329 329 329 330 331 330 330 330 330 330 313 317 322 328 328 326 327 327 327 327 326 329 329 329
330 330 331 332 331 331 331 332 332 332 330 330 331 331 331 331 331 330 331 332 333 332 331 332 330 331 332 332 333 332 332 331 332 331 330 329 329 328 327 327 328 328 327 328 328 328 328 328 327 328 329 328 326 327 328 326 326 327 328 328 328 328 328 329 329 330 330 331 330 330 329 329 317 318 323 328 326 326 327 326 326 325 327 332 332
331 332 332 331 331 331 330 331 332 331 330 330 330 331 331 331 330 329 330 331 331 332 331 330 330 331 331 332 332 332 331 331 330 330 330 330 329 328 327 327 328 328 327 326 327 327 326 325 325 326 327 327 326 326 329 327 326 327 328 327 327 328 328 329 329 329 329 330 329 329 330 329 329 318 318 321 325 327 326 326 326 325 326 330 332
331 332 332 331 331 331 331 331 331 331 330 330 330 331 331 331 330 330 330 330 330 330 330 331 330 330 330 331 332 332 331 331 331 330 330 329 329 328 328 327 328 329 329 328 326 326 326 326 327 327 324 325 324 325 325 326 327 328 328 329 328 327 328 329 328 329 330 330 329 329 329 329 328 328 329 319 320 324 327 326 325 324 325 328 330
331 331 331 331 331 331 331 330 330 331 330 329 330 331 332 331 330 329 329 330 329 329 329 330 330 331 331 331 331 331 331 331 331 329 329 329 328 327 327 328 328 329 328 328 327 327 327 327 327 326 326 325 325 326 327 327 327 328 329 329 327 328 328 327 328 329 329 330 330 329 329 328 328 329 329 328 318 317 322 325 325 324 325 327 329
330 331 331 331 330 331 331 331 330 330 330 329 330 331 331 331 330 326 328 329 328 329 329 330 330 330 330 330 331 331 331 331 331 330 329 329 328 327 327 327 328 328 327 328 328 327 327 328 328 327 323 325 325 326 328 327 328 328 329 329 328 328 327 327 328 328 329 330 329 329 329 328 329 329 325 328 327 324 317 320 323 323 324 326 326
331 331 331 330 330 330 329 331 330 330 330 329 330 331 331 331 330 329 327 328 327 328 328 329 330 330 330 329 330 330 330 331 331 331 329 329 328 328 327 328 329 328 328 328 327 329 328 328 328 328 326 323 325 327 327 328 328 328 329 329 330 329 328 328 328 329 331 329 329 329 329 329 329 320 328 327 327 327 319 315 320 323 322 323 324
331 331 331 331 330 330 330 330 331 331 331 330 329 330 331 331 331 330 328 327 328 328 328 329 329 330 330 329 330 330 329 330 331 330 330 329 329 329 328 328 328 328 328 328 327 329 328 327 327 329 328 326 325 326 327 328 328 327 327 328 329 329 328 329 329 325 328 328 328 329 329 329 329 329 328 328 328 327 327 320 315 316 316 317 322
331 330 331 331 331 330 330 329 330 331 331 331 330 330 330 331 331 329 328 327 327 327 327 328 329 330 330 330 330 330 329 330 330 330 329 329 329 329 328 328 328 327 327 327 327 327 327 327 327 327 328 328 327 327 327 327 327 326 326 325 327 328 328 328 328 328 328 328 328 327 330 329 329 329 329 328 328 327 326 326 325 324 324 314 319
330 330 330 331 330 330 330 330 329 330 331 331 331 329 329 328 327 327 327 326 326 325 327 327 328 328 329 330 330 330 331 329 330 330 329 328 328 328 328 328 327 327 326 326 325 326 326 326 326 327 327 327 327 326 327 326 325 324 324 325 326 326 326 326 327 328 328 328 328 328 328 329 329 329 328 328 327 327 326 326 322 325 326 321 315
330 330 329 330 330 329 329 328 329 330 330 330 329 328 327 327 327 326 325 326 325 326 326 327 327 328 328 329 329 329 331 330 329 329 328 325 327 328 328 328 327 326 325 325 327 328 328 327 327 327 325 325 325 326 326 326 322 321 323 323 324 325 325 325 325 326 327 328 328 327 328 327 328 328 328 328 327 327 326 325 325 324 324 325 322
328 329 329 329 330 330 329 329 329 329 329 329 330 329 329 328 327 326 327 327 326 325 325 326 327 328 328 329 328 329 329 330 328 329 328 328 327 327 328 327 327 326 325 327 328 325 327 327 327 325 325 324 324 326 326 322 319 318 317 318 320 323 324 325 324 325 326 327 327 327 327 327 327 327 327 326 326 325 325 325 325 324 324 324 324
328 328 329 330 330 330 330 330 329 329 329 329 330 329 330 330 330 329 328 327 329 328 328 327 328 327 328 328 328 328 328 328 329 328 328 328 328 327 327 328 328 327 325 325 325 325 325 325 325 323 323 324 323 325 326 323 319 320 319 315 313 314 320 322 324 323 324 325 326 325 325 325 326 327 326 325 325 325 324 324 324 323 323 323 323
327 328 329 329 329 329 330 330 330 329 329 329 328 331 331 332 331 331 331 329 328 328 328 328 328 328 327 328 328 328 328 327 328 328 327 328 328 328 329 329 327 328 327 325 324 323 324 324 324 324 323 321 321 321 323 323 322 319 313 314 315 314 310 314 319 323 323 323 323 323 324 323 325 325 325 323 324 324 324 323 322 322 322 322 323
327 328 329 329 329 330 330 330 330 330 329 328 328 330 330 330 329 329 329 328 328 328 327 326 327 326 326 327 326 327 327 327 327 328 326 327 329 329 329 329 327 327 327 326 325 324 325 325 324 323 322 321 321 322 322 322 322 323 318 315 313 311 311 314 315 317 320 319 320 321 322 322 322 323 323 323 323 323 323 322 322 321 320 320 321
325 328 329 330 330 330 331 331 331 330 329 329 328 328 328 327 326 324 321 322 322 322 322 323 324 324 324 327 327 327 327 327 327 327 328 326 328 329 329 329 328 327 327 326 326 326 326 325 325 324 323 324 322 321 321 322 322 323 323 321 318 313 313 316 313 310 320 319 322 321 321 321 321 321 322 322 322 322 321 321 322 320 319 318 318
323 327 329 329 330 330 331 331 331 330 330 329 329 327 327 326 326 325 324 323 323 324 326 327 328 327 327 326 326 327 327 327 327 327 328 327 327 329 329 329 329 328 327 326 325 326 326 326 326 325 324 324 323 319 319 320 320 320 322 321 321 321 320 316 311 314 310 317 318 318 319 320 320 320 320 321 322 322 321 320 320 320 319 317 317
320 325 327 328 329 329 330 330 330 329 330 330 328 327 326 326 326 326 325 325 325 326 327 327 329 329 327 327 327 327 327 327 327 327 328 327 327 328 329 329 328 328 327 326 326 326 327 327 326 326 325 325 324 321 320 321 318 317 319 320 320 320 320 320 320 314 312 310 313 318 318 319 319 319 319 319 320 321 321 319 319 319 319 318 316
318 322 324 325 328 329 330 330 330 330 330 330 328 328 326 327 327 326 325 326 327 328 329 329 328 328 328 327 327 327 327 327 327 327 328 328 326 327 328 328 327 327 326 327 327 327 327 326 325 324 324 324 324 323 322 321 321 320 319 316 318 318 318 319 318 318 312 310 311 313 315 319 319 320 321 320 320 321 321 320 319 318 318 317 315
316 319 321 324 327 328 328 328 329 330 330 330 328 328 327 326 327 327 326 326 326 327 328 328 327 328 327 327 327 326 326 326 326 327 328 328 328 327 327 328 327 327 324 326 327 326 326 326 326 325 325 324 324 323 322 322 322 322 321 319 315 316 316 316 316 315 314 313 309 312 314 315 313 317 321 320 320 320 321 321 320 318 317 317 316
316 315 316 321 324 326 327 327 328 329 330 330 329 328 327 327 326 327 327 326 327 326 326 326 327 327 326 326 326 326 326 326 326 326 327 328 327 327 327 327 327 326 324 325 325 326 326 325 325 326 325 324 323 323 322 322 322 321 321 321 318 316 315 314 314 314 314 312 312 312 314 316 315 315 319 322 322 321 321 320 320 319 318 318 316
Wind_Speed
10 9 10 10 9 10 11 11 11 10 10 11 11 11 12 11 11 11 10 10 10 10 10 10 9 9 9 9 10 10 12 13 14 15 14 13 13 14 15 14 14 14 14 15 16 16 16 16 16 17 17 17 18 17 17 18 18 17 17 17 18 18 18 17 17 16 16 17 18 17 17 18 17 18 16 15 15 14 12 9 11 12 12 14 17
14 10 10 11 9 9 10 10 9 10 10 10 11 11 10 11 10 9 8 8 9 9 9 9 9 8 9 9 9 10 12 13 14 14 14 13 13 14 14 14 14 14 13 14 16 17 16 16 16 17 17 17 17 16 17 17 17 16 17 17 18 17 17 16 15 14 14 15 16 16 17 17 16 16 17 16 16 15 12 12 12 11 11 14 14
13 11 10 12 8 7 8 9 10 9 10 10 10 11 10 9 8 9 9 9 9 9 9 10 9 8 9 11 11 12 13 14 15 13 13 13 13 13 14 14 14 13 14 15 16 16 16 16 16 16 16 16 16 16 16 17 16 16 17 17 17 16 16 15 14 13 11 10 9 17 17 17 16 16 16 16 16 16 13 15 14 13 11 15 14
13 10 10 11 5 8 9 10 10 9 6 8 9 8 10 10 10 9 9 9 9 9 9 9 9 9 10 11 13 13 13 15 14 13 13 13 13 13 13 13 13 13 13 15 16 16 16 16 16 15 16 16 16 16 15 16 16 16 16 16 15 15 14 13 13 12 10 7 5 10 9 11 12 15 15 15 15 16 13 15 15 16 15 15 14
13 11 11 11 11 9 9 9 10 10 9 9 9 7 8 11 10 10 9 9 9 9 8 10 9 8 8 10 12 11 14 14 14 13 13 13 13 13 13 13 13 13 13 14 15 15 15 15 15 15 15 15 15 15 15 14 15 15 15 15 14 14 13 13 12 10 8 6 4 9 10 11 10 14 14 14 14 11 11 12 13 13 13 14 14
11 10 11 10 10 11 9 9 10 10 10 9 8 7 6 9 10 10 10 9 9 8 9 10 10 9 9 11 13 12 13 13 13 13 13 12 12 12 12 12 12 13 13 14 14 14 14 15 15 14 14 14 15 14 14 14 14 14 15 15 14 13 13 12 11 9 8 5 7 8 10 10 10 9 14 14 13 10 12 13 13 13 12 13 13
12 10 10 10 9 10 9 9 10 10 9 9 8 8 7 9 10 10 10 10 10 9 9 8 8 10 11 10 10 12 13 12 12 13 13 12 12 11 11 12 12 12 12 12 13 13 13 14 13 14 13 13 13 14 14 14 14 14 14 14 14 13 12 11 11 9 9 4 7 8 8 9 9 8 12 12 11 11 11 12 12 12 11 12 13
10 9 10 9 9 11 9 8 10 10 10 9 8 9 9 12 11 10 10 10 10 10 9 7 8 9 9 9 9 11 12 13 14 13 12 11 11 11 11 11 12 11 11 12 12 13 13 13 13 13 13 13 13 13 13 13 13 13 13 13 13 12 11 10 8 6 6 9 7 7 7 8 9 7 11 11 11 10 11 11 9 11 12 12 11
10 10 10 9 9 11 8 8 10 10 10 9 7 5 9 12 11 10 10 10 10 8 7 7 7 8 10 10 9 12 13 13 12 12 11 10 10 10 10 10 11 11 11 12 12 12 12 12 12 13 12 13 13 13 13 13 13 13 13 12 12 12 10 8 7 3 8 7 8 7 7 8 8 8 9 9 9 8 7 7 8 11 10 10 9
11 9 9 9 10 9 8 9 10 11 10 9 9 7 7 7 10 9 9 9 9 8 7 6 10 11 11 9 11 12 13 12 11 12 11 10 9 9 9 9 10 10 10 11 11 12 12 12 12 12 12 12 12 12 12 13 12 12 12 12 11 10 8 6 0 8 7 7 8 8 6 9 7 7 8 8 7 6 7 8 9 8 9 10 9
11 9 9 9 11 9 8 8 8 10 10 10 10 8 7 7 8 6 6 10 8 8 7 5 10 10 11 11 11 13 12 12 11 11 11 9 9 9 9 9 9 10 10 10 11 11 11 12 12 12 12 12 12 12 11 11 11 11 11 11 10 9 7 6 3 7 8 7 8 7 7 4 6 7 7 6 7 9 6 8 8 7 9 8 9
10 10 9 7 10 8 7 7 7 8 9 8 8 11 8 7 6 5 6 9 8 7 7 6 5 7 11 12 11 12 11 11 11 11 11 10 10 9 9 8 9 9 9 9 9 10 10 11 12 11 12 12 11 11 11 10 10 10 10 9 9 9 7 8 5 6 7 7 7 6 8 8 9 10 10 9 9 5 7 8 8 7 7 8 8
11 9 9 9 9 6 6 6 7 7 8 9 7 7 9 8 7 7 5 7 8 7 7 6 7 7 7 13 11 12 11 11 11 11 11 10 9 9 8 8 8 8 8 8 8 9 9 10 10 11 11 11 11 11 10 10 9 9 9 9 9 8 7 9 6 6 6 6 6 6 6 6 7 11 8 7 6 6 6 6 7 7 8 7 8
12 10 9 9 8 8 8 7 7 7 5 8 7 5 8 9 8 7 5 3 8 7 7 6 7 9 9 10 12 12 12 12 11 10 10 10 9 9 9 8 8 8 8 8 8 9 9 10 10 10 10 10 10 10 10 9 9 9 9 9 8 6 5 3 5 5 5 5 5 5 5 6 7 9 7 6 6 6 7 8 7 8 8 8 7
13 12 8 9 9 9 8 7 6 6 5 7 7 4 5 8 8 8 6 2 5 5 9 7 7 9 10 9 11 11 11 11 11 10 9 9 9 9 8 8 8 7 7 8 8 8 9 10 10 10 10 9 9 9 8 9 8 9 8 8 7 6 9 4 4 4 5 4 4 4 5 6 8 8 8 7 6 7 7 7 8 8 8 7 7
14 11 11 10 9 9 9 8 7 6 5 7 6 4 1 4 3 4 5 3 2 6 8 8 8 8 9 8 9 11 11 11 10 9 7 9 9 9 8 8 7 7 8 8 8 8 8 9 10 9 9 8 8 8 7 7 8 8 8 7 5 5 5 7 4 3 3 4 4 3 3 6 7 8 8 7 7 7 7 7 7 8 8 7 6
13 12 13 13 10 9 9 9 7 6 6 7 6 3 3 3 4 1 3 4 1 4 6 7 8 9 8 9 9 9 10 10 8 7 7 9 9 8 7 8 7 7 7 7 8 8 8 9 9 9 8 8 8 8 7 7 6 7 6 4 4 3 3 7 3 3 3 4 3 3 3 5 10 7 6 6 6 6 7 6 7 7 6 6 6
12 13 14 13 13 10 9 9 9 8 7 7 7 5 4 3 4 5 4 5 5 5 5 6 5 7 7 4 7 7 8 9 7 7 7 8 7 6 6 7 7 7 7 7 7 7 8 8 9 9 8 8 8 8 8 7 6 6 5 3 2 1 1 7 3 2 3 3 3 3 3 8 11 9 7 7 5 5 6 7 7 6 6 5 5
11 13 13 12 12 12 11 9 10 8 8 7 7 6 6 5 5 6 4 4 5 5 6 8 6 7 7 6 6 7 8 7 7 8 8 8 7 6 6 6 7 7 7 6 6 7 7 8 8 8 8 8 9 9 8 7 6 5 4 2 1 1 3 6 4 3 2 3 3 3 5 8 10 9 8 7 5 5 6 7 6 5 5 5 4
10 12 12 11 10 11 10 10 10 10 9 8 8 8 6 6 6 6 5 4 4 6 7 7 8 7 7 8 7 8 7 7 7 8 8 7 8 7 6 6 7 7 7 6 6 6 7 7 8 9 8 8 9 8 7 6 5 4 3 2 3 5 4 3 2 3 3 3 3 3 6 8 10 10 8 7 6 6 6 6 4 4 4 4 4
8 11 12 12 12 12 12 10 11 11 10 9 8 8 7 7 6 6 7 6 5 6 7 8 7 7 8 7 7 8 8 8 7 7 7 7 6 6 5 5 7 7 7 7 6 6 6 7 8 9 9 8 7 7 6 5 4 2 1 2 4 6 3 2 3 2 3 2 3 5 7 8 9 9 9 7 6 4 5 4 4 3 3 4 3
10 9 9 10 9 11 11 11 9 11 10 8 7 7 6 7 8 8 7 6 6 7 7 8 8 8 8 8 8 7 7 7 7 7 7 6 6 5 5 6 7 6 6 6 6 5 6 7 9 9 7 5 3 3 4 4 3 1 1 3 6 2 1 2 3 3 3 3 4 5 6 7 9 10 9 7 5 4 4 3 3 2 3 2 3
12 10 9 10 9 10 8 10 10 11 11 10 7 7 8 8 8 8 7 8 9 8 9 8 8 8 9 8 7 6 7 6 5 4 3 4 5 3 5 6 7 6 7 8 7 7 7 6 7 6 4 4 3 2 2 2 3 4 5 4 2 2 2 2 2 3 4 4 5 3 5 7 9 10 9 7 5 4 4 3 2 1 2 2 3
14 13 10 9 11 10 11 11 11 11 11 9 8 7 8 8 8 8 7 7 8 8 8 8 9 9 8 8 7 7 7 6 8 7 5 5 4 4 3 5 7 7 7 6 7 7 5 5 4 2 3 2 2 2 2 3 3 2 2 2 2 1 2 2 3 3 3 3 4 2 4 7 8 9 9 7 6 4 2 2 2 0 2 2 3
11 11 9 10 11 11 10 11 11 11 11 9 9 9 8 8 8 8 7 7 8 8 8 8 9 9 9 8 8 7 6 6 6 6 6 5 5 5 5 5 4 4 1 3 2 2 2 1 2 2 2 2 2 2 3 3 3 2 2 2 2 2 2 2 3 3 3 3 3 1 2 5 8 9 9 7 5 5 2 2 2 1 0 1 4
10 12 13 11 12 12 11 10 10 11 11 10 9 8 9 8 8 8 8 7 8 8 8 8 9 10 9 9 8 8 7 6 6 5 5 5 6 5 5 4 4 4 2 3 3 2 1 1 2 2 2 2 2 2 3 3 3 3 2 2 3 2 3 2 3 3 3 3 3 2 3 4 7 8 8 8 5 5 4 3 3 2 2 3 4
12 12 11 11 12 14 13 11 11 10 11 11 9 9 9 9 8 8 9 8 8 9 9 9 9 10 10 9 9 8 7 7 6 6 6 5 6 5 5 4 4 4 3 3 3 2 2 2 2 2 2 3 3 3 3 3 3 3 3 3 3 3 3 3 3 3 3 3 1 3 2 5 6 8 8 8 7 6 6 6 4 4 3 5 5
12 13 12 13 11 15 14 13 12 11 11 11 11 10 9 10 9 9 9 9 9 9 9 10 9 9 10 10 9 8 8 7 6 5 6 5 6 5 5 4 4 4 3 3 3 3 3 3 3 3 3 4 5 4 4 4 4 4 4 4 3 4 4 3 4 4 4 3 4 5 4 2 4 6 8 7 7 7 7 7 8 7 5 3 6
14 14 13 13 15 13 15 15 14 14 11 9 11 10 10 10 9 10 10 10 10 10 11 10 10 10 10 10 10 9 9 8 6 7 6 6 6 6 5 4 4 4 4 4 3 4 3 3 3 4 4 4 5 5 5 4 4 4 4 4 4 4 4 4 4 5 5 5 5 3 6 4 4 5 6 6 8 8 8 8 9 9 9 10 6
15 14 14 14 14 15 16 16 15 14 12 10 11 12 11 11 11 11 10 10 10 10 11 11 10 10 10 11 11 10 9 9 8 7 7 7 6 5 5 5 4 4 4 4 4 4 3 3 4 4 4 5 5 5 4 5 5 4 4 4 4 5 4 5 5 5 6 6 5 3 6 4 5 5 6 6 7 8 9 9 9 9 9 9 8
14 16 16 14 13 14 16 16 16 12 12 12 11 13 12 12 11 10 10 11 10 11 11 11 10 10 10 10 10 10 9 9 8 8 7 7 6 6 5 5 5 5 5 5 5 5 4 4 4 4 5 5 5 4 4 5 5 5 5 5 5 4 5 5 6 6 6 5 5 5 4 8 7 7 8 7 6 8 9 9 9 9 9 9 9
15 16 14 14 14 16 16 16 16 14 13 14 12 12 12 13 12 11 11 11 12 11 11 11 11 11 11 10 10 10 10 10 10 9 7 7 7 6 6 6 6 6 5 6 6 5 5 5 4 4 4 4 5 5 4 5 5 5 4 5 5 5 5 5 6 6 6 5 6 6 5 6 10 9 9 10 7 8 9 9 9 9 10 11 10
11 14 13 15 17 16 15 16 16 16 16 15 13 13 12 12 12 12 11 10 11 11 12 11 11 11 10 11 10 11 9 9 9 9 7 7 7 7 7 7 7 7 6 7 7 6 6 5 6 5 5 5 5 6 4 5 6 6 5 5 5 5 6 6 6 6 6 6 7 7 7 7 6 10 11 11 10 9 9 9 8 9 10 11 12
10 10 13 15 13 12 13 13 15 17 17 15 13 12 12 12 12 12 11 11 11 11 12 11 11 11 11 12 10 11 10 9 9 8 8 8 8 7 8 7 7 8 7 7 7 7 6 6 5 5 6 6 6 6 6 6 6 5 5 5 5 6 6 6 6 6 6 7 7 7 7 7 7 7 7 13 12 9 9 8 7 8 9 10 9
10 11 15 15 14 12 11 12 14 17 14 16 15 14 12 12 12 12 11 12 11 11 11 11 11 10 10 10 11 11 11 11 10 8 8 8 8 8 8 8 8 8 8 8 8 7 7 6 6 6 6 6 6 6 6 6 6 6 5 4 5 5 6 6 6 6 6 6 7 8 7 6 7 8 8 6 9 11 9 7 8 7 9 9 9
15 13 12 13 15 14 13 12 15 17 17 16 15 14 13 12 10 10 11 12 11 10 10 11 11 11 11 11 11 12 11 11 11 9 9 9 8 8 8 8 9 8 9 8 8 7 7 7 6 6 6 7 6 7 6 7 7 7 6 5 5 5 6 6 6 6 6 6 7 8 8 8 8 7 7 7 8 7 11 9 8 7 8 8 9
15 14 14 14 14 15 14 15 15 18 17 17 16 15 13 13 13 12 12 11 12 11 11 11 11 11 11 10 11 11 11 12 11 11 10 9 9 9 9 9 9 9 8 8 9 8 8 7 7 6 7 7 7 7 7 7 7 6 6 7 6 6 6 6 6 6 5 6 7 8 8 8 8 8 7 7 7 8 9 11 9 8 7 7 7
13 14 14 14 14 14 14 15 14 15 15 15 15 14 13 13 12 12 12 11 12 11 10 10 10 10 10 11 11 11 11 12 12 12 11 10 10 9 10 10 10 10 9 9 9 9 9 9 9 8 6 7 7 7 7 7 6 7 8 7 7 6 6 6 7 6 6 7 7 8 8 8 8 8 7 7 8 7 7 8 9 8 8 8 7
11 14 13 13 12 12 12 13 14 14 14 15 14 14 13 13 12 12 12 12 11 11 11 11 11 11 11 11 12 11 11 12 13 13 12 11 11 11 10 11 10 10 10 10 10 10 10 10 10 9 8 8 9 9 9 8 9 8 9 10 9 10 10 9 8 7 7 8 8 9 7 8 8 8 7 8 7 8 8 7 6 6 7 11 10
12 12 14 14 13 12 11 11 13 13 13 13 13 12 12 13 13 12 12 12 12 10 11 11 11 11 12 12 12 12 12 12 13 13 12 12 11 11 11 11 11 11 11 12 11 10 11 11 11 10 10 9 8 8 9 9 9 10 10 11 11 11 11 10 10 9 8 8 8 8 8 7 8 8 8 7 8 8 8 7 7 7 7 8 11
13 13 14 15 15 14 13 15 13 13 12 12 13 13 14 13 13 14 13 12 11 12 11 11 11 11 12 13 12 12 13 13 13 13 13 11 11 11 11 12 11 11 11 12 11 10 10 10 9 9 10 11 10 7 8 7 7 8 9 12 11 10 10 10 10 10 9 8 7 8 7 7 7 8 7 7 8 8 7 7 7 8 8 7 6
14 15 16 16 16 16 16 14 12 14 14 14 13 14 14 13 13 14 13 12 12 11 12 12 12 11 13 13 13 13 13 12 13 13 13 13 12 11 12 12 12 12 11 11 11 11 11 10 9 10 9 10 10 10 6 5 5 6 9 8 8 9 9 10 10 10 9 7 7 7 6 6 7 7 6 7 7 7 7 7 7 7 8 7 8
15 16 17 15 16 15 15 14 13 14 14 15 13 13 12 12 12 9 12 11 11 11 11 11 11 12 13 13 13 13 14 14 15 14 13 14 14 12 12 12 13 12 11 12 11 12 10 13 12 11 9 10 9 9 6 9 7 4 2 5 9 7 4 5 8 10 8 6 5 6 6 6 8 7 6 6 7 7 7 7 8 8 7 8 8
13 13 14 16 14 14 15 15 14 15 13 15 14 13 12 11 11 8 9 9 9 10 11 11 13 14 14 14 14 14 15 15 15 15 14 14 14 14 12 12 12 12 12 11 12 12 11 11 12 13 11 10 9 8 10 11 9 6 7 7 4 3 8 5 3 3 3 5 6 6 4 5 6 6 5 7 8 7 7 7 8 8 7 8 8
13 14 14 15 12 17 16 16 15 16 14 14 15 13 10 9 8 8 7 9 9 9 11 12 14 14 13 15 16 16 16 15 15 15 14 14 14 13 13 13 13 12 11 11 12 12 12 11 12 12 13 12 10 9 9 11 12 10 8 4 5 6 7 6 3 7 5 5 6 6 5 6 5 6 6 6 7 7 7 8 8 8 8 8 8
14 15 15 16 15 14 16 16 15 14 14 15 15 14 12 12 11 12 11 12 13 13 15 16 15 16 18 14 13 16 16 15 15 15 16 13 14 15 15 14 13 11 12 11 11 10 12 13 13 13 14 14 11 9 9 10 11 12 14 11 8 8 6 2 1 5 3 6 4 4 5 4 5 6 6 7 8 7 7 8 8 8 8 8 8
15 13 13 14 16 14 15 17 15 13 13 14 16 13 13 12 15 15 14 14 15 14 14 12 11 11 12 14 14 14 16 16 15 15 15 15 13 14 15 14 13 13 12 12 12 12 11 12 11 13 13 11 12 12 12 10 8 10 12 14 14 12 11 9 10 8 11 4 3 3 4 5 6 7 8 9 10 7 6 7 8 8 8 8 9
14 11 12 13 15 17 16 16 14 13 12 13 15 15 15 14 15 16 14 14 14 14 14 12 10 9 12 13 13 13 15 15 15 15 15 14 14 14 14 14 14 14 12 13 13 12 11 11 12 13 12 11 12 12 12 11 11 8 9 12 13 13 14 15 13 11 10 11 10 4 4 6 7 8 10 10 10 8 7 7 8 8 8 9 8
10 12 13 13 14 15 14 14 14 13 12 14 15 17 16 15 16 14 14 14 14 12 8 8 9 10 11 10 11 12 13 15 15 15 15 15 14 14 15 14 14 14 13 13 13 13 14 14 13 12 13 13 12 11 11 11 11 11 8 9 10 11 11 13 12 9 9 9 10 9 9 5 5 9 9 9 9 8 8 8 8 8 8 8 7
10 10 10 10 11 12 14 15 16 14 14 16 16 18 18 15 15 16 17 14 12 11 10 9 10 9 10 11 11 10 11 12 14 15 15 16 16 15 14 15 15 14 12 13 14 14 14 14 13 14 12 13 12 12 13 12 11 11 11 8 8 8 9 9 8 10 9 11 11 9 10 11 13 10 8 10 11 9 9 8 8 8 8 8 7
7 11 12 12 12 13 15 17 18 15 15 17 17 18 17 16 16 17 18 16 15 12 11 12 10 10 11 11 11 11 11 12 12 14 16 15 16 15 14 14 14 12 13 14 14 14 13 13 13 14 11 14 13 13 12 13 11 11 11 9 8 9 8 9 8 8 9 8 9 12 11 12 13 13 11 10 8 8 8 8 8 9 9 8 7
Wind_Direction
160 153 148 143 155 162 142 140 137 134 131 132 126 120 117 112 110 111 119 120 108 101 101 101 105 108 108 106 98 102 99 93 88 85 86 87 86 84 83 83 83 83 88 89 87 85 84 85 84 82 80 79 79 78 78 79 79 79 78 76 70 68 65 60 59 57 63 68 67 74 76 72 69 68 68 75 64 46 30 41 77 68 62 61 58
157 154 152 148 162 163 147 143 142 140 137 132 127 122 112 108 112 113 105 101 100 98 95 92 93 109 113 112 110 108 105 97 93 90 91 91 90 89 88 88 87 86 88 92 90 85 84 83 82 81 81 80 81 81 81 80 80 81 79 73 71 69 66 62 59 58 62 67 71 68 67 69 68 66 73 71 65 55 41 50 58 70 67 71 67
149 152 151 146 163 147 144 142 145 148 141 138 133 126 119 114 114 108 107 108 106 104 99 105 102 101 105 104 114 112 100 98 96 95 92 91 93 93 90 89 87 87 87 86 85 87 86 84 81 80 81 82 82 83 83 83 83 80 78 73 71 68 65 61 58 55 54 59 67 88 81 73 65 65 67 71 70 71 61 58 63 64 69 71 75
148 153 147 141 162 143 142 144 147 145 133 130 118 127 131 119 118 116 107 102 100 103 107 105 110 113 112 116 108 109 108 99 96 95 93 92 91 91 91 89 88 86 88 91 92 88 85 83 82 83 84 84 84 84 84 84 83 83 79 75 72 69 65 61 57 53 49 40 5 83 72 75 72 68 68 69 69 66 63 65 65 67 68 65 66
147 150 148 147 151 143 142 143 146 144 130 119 121 122 133 128 122 116 111 109 110 114 123 118 115 122 122 117 111 116 110 106 102 98 94 92 92 92 92 91 89 88 88 92 95 94 88 85 84 84 86 87 85 85 86 85 85 86 82 76 72 68 63 58 52 48 37 12 320 78 74 77 79 72 68 70 73 78 76 68 67 65 65 68 66
148 149 153 152 150 145 136 144 143 141 136 129 131 131 135 128 120 116 117 118 117 121 120 122 125 144 140 122 119 124 110 109 106 103 98 93 90 92 93 93 92 94 96 97 94 93 93 90 86 86 89 90 89 88 89 89 88 85 80 76 72 65 58 54 48 33 10 320 77 74 75 75 71 70 68 75 74 67 68 65 63 61 59 58 63
146 153 155 153 152 143 133 137 139 136 131 130 131 138 142 128 118 123 122 123 124 128 129 127 137 108 95 110 122 116 111 108 107 102 98 96 91 88 88 92 93 94 94 95 96 96 93 93 94 92 90 91 91 92 94 93 90 85 81 76 73 68 60 52 46 31 332 60 63 73 71 69 70 67 66 71 70 68 66 65 62 59 54 49 38
150 156 156 154 150 124 129 135 136 132 131 131 137 144 149 126 129 129 127 128 130 128 127 134 135 114 118 120 121 118 114 112 106 103 101 99 98 94 92 96 97 96 97 99 101 99 98 93 92 92 92 92 93 95 95 96 95 88 81 76 72 68 63 53 42 20 347 68 68 62 73 74 75 70 66 65 59 56 61 61 54 53 47 44 35
156 158 155 152 137 123 130 136 136 134 131 131 129 137 141 136 137 140 141 136 128 130 132 140 135 134 125 126 128 122 116 110 105 104 103 103 102 104 105 107 107 106 106 105 101 100 99 99 97 98 100 99 99 97 97 97 96 90 82 77 72 68 63 54 23 283 73 69 66 64 56 71 73 80 71 65 66 57 26 8 76 56 47 43 41
152 159 157 149 141 128 136 141 140 137 136 139 140 134 119 132 144 138 140 128 130 139 141 142 114 106 114 125 131 120 112 110 110 108 106 105 108 111 112 110 109 109 107 107 107 106 104 102 99 101 104 103 100 98 97 97 96 91 85 77 70 63 52 43 116 59 72 72 74 68 45 337 74 72 75 77 63 55 26 10 30 29 35 30 28
149 157 156 141 133 131 144 146 146 144 144 148 146 143 143 131 132 129 144 136 142 139 145 137 120 116 128 129 129 120 115 115 116 114 112 114 112 110 110 112 112 113 114 111 110 110 108 108 109 105 103 103 101 99 96 96 93 90 86 78 70 58 39 354 299 65 66 68 65 74 87 246 76 67 73 70 66 52 40 40 49 34 29 28 37
153 150 153 130 125 137 143 141 142 149 149 146 151 148 150 144 147 152 161 144 140 142 143 139 126 129 132 133 136 123 122 122 121 118 115 116 117 114 112 114 119 117 119 118 115 115 113 111 110 109 103 101 102 101 101 99 95 88 82 74 63 55 31 346 45 66 62 64 60 46 46 45 39 39 31 43 57 48 38 28 25 25 33 33 36
146 144 150 141 143 126 138 138 146 152 153 147 156 159 154 154 165 167 170 151 138 146 138 128 122 136 152 138 136 129 127 128 124 122 124 123 122 119 118 122 121 125 123 125 120 117 116 113 111 111 108 105 103 103 103 100 95 87 77 68 60 49 41 354 61 56 54 54 52 46 37 44 35 26 28 28 34 39 29 34 30 28 38 39 45
139 145 149 151 145 134 138 136 145 160 156 154 164 166 157 159 164 170 176 156 151 154 144 134 138 133 140 144 137 133 134 131 128 125 124 128 125 126 123 122 126 129 132 131 127 121 117 117 115 113 115 111 108 106 102 99 90 82 72 66 58 37 339 97 55 56 55 55 49 33 30 43 28 29 22 28 33 36 39 38 40 34 40 47 46
153 145 140 160 155 156 143 142 145 143 132 144 149 176 169 167 165 169 181 125 66 145 144 141 151 147 146 150 137 135 134 133 131 129 130 129 128 124 125 124 128 132 132 128 129 123 120 117 118 117 114 116 112 110 104 94 89 79 70 61 55 23 344 53 50 68 60 46 39 37 38 39 23 18 24 25 27 39 40 46 41 43 45 50 49
163 149 150 169 171 163 166 150 145 138 142 133 142 166 13 155 91 164 175 111 100 108 128 146 141 146 143 154 149 142 143 139 136 130 126 129 132 131 133 135 131 132 136 133 129 130 124 119 116 117 116 115 115 110 105 99 88 81 76 69 52 28 4 321 73 55 63 38 34 29 41 43 20 24 16 23 26 31 38 41 47 49 50 51 56
169 160 171 169 172 179 177 169 152 135 140 144 148 164 87 49 165 162 129 138 115 111 120 135 140 153 152 158 155 150 144 135 132 126 133 137 136 133 135 134 129 132 130 133 133 130 130 121 119 119 116 111 107 105 102 97 91 87 85 82 54 56 349 306 79 59 45 41 29 7 38 21 351 15 23 19 31 37 27 46 51 55 51 56 59
179 178 179 175 168 180 187 177 163 172 166 152 152 164 104 97 140 126 110 93 101 95 97 91 128 139 139 148 152 142 133 133 132 135 135 130 120 125 133 135 141 134 132 135 134 132 130 128 123 120 113 104 97 95 89 89 91 96 99 85 92 46 301 292 63 62 41 28 22 4 17 358 341 353 5 38 23 25 42 39 48 57 61 55 67
182 192 189 186 180 178 182 184 178 178 179 185 181 156 132 137 138 125 117 108 113 104 98 111 109 123 127 137 134 130 128 132 132 134 131 134 131 130 133 139 139 131 120 124 132 132 130 129 124 120 113 102 92 84 80 79 91 104 104 116 126 227 273 259 48 25 1 24 360 353 14 341 344 347 348 41 30 7 38 41 42 52 62 71 78
196 196 199 196 190 188 188 187 187 189 189 189 184 181 141 153 151 141 136 112 114 117 122 122 124 126 129 133 133 137 140 135 134 138 142 140 149 152 137 146 141 135 125 121 129 133 133 132 127 111 95 94 91 86 81 81 84 102 130 149 202 244 237 40 12 27 5 28 348 349 13 339 345 343 346 3 26 17 23 40 34 50 69 77 95
199 206 206 202 201 197 195 196 196 191 188 188 185 186 144 155 158 156 154 140 143 142 136 132 134 135 143 136 153 181 169 163 162 171 144 160 139 131 154 139 139 136 131 118 116 128 131 128 106 92 82 76 79 83 73 84 88 97 125 207 225 238 38 3 352 7 10 350 350 25 4 334 337 340 344 9 17 23 23 37 32 38 68 95 106
194 204 213 209 206 203 198 203 199 197 192 187 185 187 174 187 192 182 189 164 156 153 163 185 172 175 153 156 195 192 192 184 188 159 187 152 154 141 140 131 121 124 131 120 94 86 108 94 88 86 85 96 166 162 136 122 125 152 189 267 244 6 4 1 340 358 352 341 339 34 342 330 335 337 336 2 7 7 28 13 27 35 61 105 122
202 198 207 201 205 206 201 204 205 200 195 191 189 193 191 193 200 200 195 194 189 187 205 197 194 193 185 190 202 197 206 200 195 159 178 51 77 119 133 135 134 126 106 100 82 67 59 62 61 73 93 163 198 165 167 181 156 181 222 224 287 327 3 334 334 342 327 12 320 37 333 321 330 338 336 355 2 355 23 9 4 31 79 90 143
205 202 199 203 202 205 203 206 205 202 200 203 199 197 198 196 200 202 206 202 200 199 208 203 207 201 197 204 204 202 202 208 88 119 132 177 126 95 73 107 100 88 121 122 110 76 97 93 81 85 179 201 187 202 203 205 210 204 217 267 280 308 277 323 336 334 336 19 330 336 317 318 326 334 338 348 356 350 44 39 15 349 81 107 139
207 201 201 204 200 204 204 205 205 205 204 205 203 206 201 202 202 205 204 206 206 204 206 202 207 206 205 211 211 200 203 208 183 182 205 194 190 192 183 201 196 178 156 206 196 160 203 148 176 198 200 199 212 220 237 232 235 235 268 281 280 275 285 296 327 341 320 339 3 205 317 308 316 325 335 338 350 336 56 23 29 347 51 130 159
204 206 205 203 202 203 206 208 206 208 207 208 205 203 202 207 206 203 201 207 208 207 210 205 206 209 208 212 208 209 208 213 203 199 204 202 204 208 214 216 216 215 182 217 216 204 196 202 204 226 213 211 228 234 241 259 264 270 275 280 280 274 283 303 315 322 336 326 51 96 277 292 303 316 329 334 347 349 354 0 347 311 209 178 192
205 210 204 208 207 208 207 206 209 209 211 212 208 208 207 212 208 206 202 204 209 210 211 212 211 209 212 209 213 215 214 209 206 206 204 204 211 215 216 211 218 222 217 226 213 207 226 232 227 226 225 226 227 234 236 241 260 265 262 249 256 274 286 295 302 315 312 305 85 179 275 290 306 313 319 330 329 335 346 336 336 294 259 196 205
207 207 208 208 207 209 209 207 209 209 209 211 212 213 213 213 212 206 206 203 204 209 214 215 214 214 212 215 216 220 215 217 211 207 207 207 216 215 221 215 220 223 213 233 218 214 213 223 228 226 225 224 231 231 234 234 239 244 252 248 246 257 272 284 297 304 297 297 299 163 219 243 294 302 308 321 326 325 325 330 320 309 260 225 187
210 207 205 206 208 208 208 209 209 210 208 205 212 214 215 215 213 212 210 205 209 211 212 215 218 217 215 217 215 223 225 221 209 211 214 211 217 217 213 220 221 220 213 216 220 219 221 217 222 224 225 233 229 228 229 236 242 236 246 251 244 254 266 271 279 291 292 289 293 185 192 210 262 282 293 309 315 315 318 320 318 306 286 256 219
209 206 204 206 205 204 208 208 208 208 209 204 213 214 215 214 215 214 215 205 211 211 214 217 219 219 220 220 218 222 227 227 221 218 212 215 216 212 213 218 217 216 214 222 221 231 230 217 223 228 230 236 240 237 234 237 234 240 240 249 252 260 265 274 275 278 285 287 283 252 169 212 235 259 265 277 299 304 308 309 313 304 284 258 223
206 208 206 205 203 202 206 207 207 204 207 208 211 216 217 217 216 216 216 212 213 213 214 218 220 221 222 221 220 218 225 226 226 217 214 216 215 212 214 215 219 218 217 225 223 230 236 240 231 233 231 236 240 238 235 245 244 236 236 241 251 256 262 267 273 276 278 280 280 277 179 203 225 235 247 243 271 286 290 296 302 303 277 260 259
208 208 207 206 203 204 204 205 206 204 206 210 210 215 216 216 217 218 218 215 215 216 218 219 220 221 222 222 223 223 223 227 227 225 220 222 220 217 217 216 222 220 217 223 226 228 238 243 250 261 265 254 251 244 238 246 250 249 242 239 244 251 259 262 269 272 275 278 280 274 256 208 209 222 236 250 237 253 271 281 290 297 284 274 271
210 206 202 204 205 201 203 205 205 205 205 209 210 213 215 216 217 220 220 216 214 218 221 221 222 222 223 222 225 223 219 224 225 228 220 227 226 223 225 225 227 224 221 223 226 230 234 238 240 237 241 239 243 247 234 243 251 250 245 246 248 251 254 259 262 267 271 269 275 273 267 254 231 201 224 242 235 233 244 254 270 283 275 273 285
200 198 198 203 198 202 203 203 204 205 205 209 210 210 211 214 218 221 220 218 217 216 222 225 225 225 224 224 224 224 221 221 224 219 222 227 230 228 232 230 229 227 225 220 221 225 233 235 234 221 228 233 238 240 242 243 244 244 242 241 244 253 257 252 258 265 269 271 275 271 261 258 254 254 219 219 234 226 234 246 254 270 270 275 284
200 198 199 198 191 192 195 203 201 206 201 207 209 212 211 213 215 219 219 217 216 218 220 222 224 223 222 221 222 223 220 221 219 220 218 227 229 229 230 232 228 225 228 225 227 227 231 231 227 229 233 233 240 244 246 253 254 252 253 244 248 252 251 255 257 255 253 261 266 268 261 252 250 253 258 258 202 226 237 240 246 258 270 272 273
206 204 201 195 198 196 190 196 198 204 205 206 208 212 214 218 213 214 219 215 217 217 218 220 220 222 224 225 220 222 219 219 219 218 223 223 229 230 229 231 229 226 226 225 223 229 226 231 230 232 240 239 240 242 242 252 254 256 255 254 257 251 259 260 256 255 255 255 263 263 257 255 247 245 241 251 267 228 208 232 239 240 257 266 275
208 207 203 198 200 197 193 198 195 200 204 205 208 211 215 219 220 218 217 211 215 217 219 220 220 221 224 224 221 219 217 219 217 218 223 223 226 230 230 229 225 224 224 222 223 228 232 232 234 224 235 251 247 250 253 255 258 257 258 255 254 250 252 256 255 257 244 245 249 253 251 245 240 234 233 241 245 260 189 218 232 232 242 259 268
212 212 209 202 201 198 198 201 202 197 201 205 207 210 213 216 219 219 215 211 214 218 218 218 221 221 221 223 220 216 216 217 216 217 221 224 226 228 232 228 224 225 226 225 227 229 232 235 239 233 226 235 248 254 257 256 258 266 269 267 261 252 255 254 252 251 250 249 246 243 244 246 241 231 229 233 240 235 247 195 219 242 242 250 251
210 211 210 209 203 202 200 199 202 201 200 207 206 210 214 217 219 218 217 219 220 218 217 218 221 222 223 221 219 217 213 217 215 215 220 222 223 226 229 228 225 229 229 229 230 230 231 233 238 243 239 244 253 257 263 271 272 270 269 269 270 268 270 266 259 250 246 244 247 247 244 243 246 235 228 228 230 237 228 239 227 226 223 220 241
211 210 211 209 208 206 202 200 201 200 203 203 205 208 210 213 213 213 217 214 216 216 215 219 218 221 222 221 219 218 216 215 214 214 217 220 223 223 225 226 226 229 231 230 230 227 227 230 236 241 247 246 242 256 259 261 263 267 271 273 269 268 264 263 258 250 245 243 243 241 239 238 235 236 228 224 233 231 227 226 232 234 242 213 218
210 210 210 210 208 206 200 205 198 195 197 198 205 208 208 210 213 213 213 208 210 213 215 217 220 221 220 220 219 219 219 215 214 213 215 215 220 222 222 225 226 229 231 232 230 229 228 232 237 234 241 247 244 226 250 252 262 270 269 272 270 259 256 250 253 247 240 239 238 240 238 236 234 235 231 227 232 231 231 222 224 233 237 246 212
209 207 210 210 208 207 207 205 194 196 202 202 202 208 211 209 205 209 210 209 205 205 213 216 217 218 218 219 218 219 219 217 214 214 215 215 216 220 220 222 223 228 231 234 234 233 233 235 235 243 235 244 249 244 224 202 239 254 280 282 282 278 262 243 236 246 244 237 240 239 241 237 240 241 235 236 232 234 232 232 229 228 232 235 243
208 205 209 208 208 208 211 205 199 198 202 202 201 205 204 207 207 202 204 210 214 214 218 219 217 219 220 219 217 217 216 217 215 214 216 216 218 217 220 221 223 225 228 232 233 235 231 232 232 237 243 234 245 250 219 200 254 259 252 303 282 287 229 217 230 238 233 236 234 239 239 242 245 245 243 242 242 234 228 227 231 229 225 228 234
210 209 204 207 208 211 209 203 204 203 203 202 203 204 201 201 204 208 195 201 210 215 220 222 224 222 223 218 219 216 215 215 214 214 216 216 215 217 219 222 225 225 227 230 230 231 228 230 230 233 237 251 227 233 227 224 229 223 260 232 265 299 288 267 252 217 212 232 234 238 229 240 246 239 237 243 245 241 230 219 225 228 228 230 229
207 206 202 201 205 208 204 202 206 207 205 201 198 199 191 181 185 201 203 215 225 222 220 225 223 222 222 219 218 214 214 215 216 218 217 220 219 219 220 224 228 225 225 229 230 228 225 226 227 230 229 234 243 236 219 212 220 224 232 250 240 244 238 266 10 270 190 223 220 228 229 233 237 240 238 242 248 244 230 225 224 223 224 227 231
211 209 204 203 203 204 201 203 208 208 204 201 195 194 198 196 190 208 205 210 218 214 217 217 213 215 217 217 213 213 214 216 216 217 219 218 220 220 222 225 227 225 224 228 230 226 225 225 224 226 231 231 241 246 243 202 214 221 229 237 258 278 306 349 258 284 163 214 201 189 225 221 234 245 242 243 243 238 227 232 226 222 218 222 226
216 208 202 206 206 203 202 203 204 206 201 197 190 188 197 197 197 201 201 202 208 216 217 215 210 207 211 210 211 211 214 215 217 217 218 218 220 220 221 223 226 226 225 228 230 227 225 226 223 223 228 229 228 240 240 235 211 227 226 235 246 253 256 267 268 287 284 242 165 228 238 225 230 234 240 242 243 236 230 230 232 228 222 221 222
214 196 199 204 204 207 204 204 205 205 201 190 188 189 196 199 200 203 205 209 209 214 206 209 206 199 197 206 212 214 214 216 216 216 217 216 216 221 220 222 224 226 224 227 232 230 228 227 224 227 229 230 227 230 238 237 232 231 211 228 237 245 251 254 256 259 272 281 273 240 238 237 229 231 235 240 244 242 238 233 233 230 228 224 219
210 197 203 203 203 207 206 205 206 204 203 192 193 196 200 201 200 202 208 215 216 219 209 200 197 196 196 193 199 212 214 214 215 215 215 216 213 218 218 220 221 223 223 229 230 232 231 231 226 221 227 229 229 231 236 239 235 242 215 216 222 231 243 247 249 245 244 260 265 259 269 222 230 246 240 232 234 232 233 235 233 231 233 231 219
208 209 214 207 203 200 203 205 211 209 206 203 199 202 201 202 204 206 209 212 211 215 213 206 197 197 203 201 202 207 216 214 215 215 215 216 215 215 218 219 220 222 222 227 229 230 230 230 230 228 225 230 230 229 231 235 237 240 236 226 207 217 226 230 227 227 235 230 253 262 267 273 272 263 234 232 227 224 224 227 229 229 232 236 229
191 208 214 211 204 200 202 205 210 208 207 207 202 202 202 202 209 209 210 211 207 207 208 214 203 198 205 204 203 207 209 217 213 215 216 215 216 216 219 220 221 220 221 224 227 227 228 229 230 231 226 229 231 231 229 230 234 236 236 228 220 204 210 225 220 212 225 236 245 253 254 251 255 269 258 250 236 218 217 222 231 233 232 231 229